When you browse on this site, cookies collect data to enhance your experience and personalize the content and advertising you see.
Visit our Privacy Policy to learn more. By continuing to use the site, you agree to this use of cookies and data.
  • In Hungary
  • List of Countries
  • For 7 days
  • Water Temperature
  • Weather Map
  • News
  • Weather Widgets
  • user-avatar
    Login

    Hourly Weather Leykino

    Today, 25 February, Tuesday

    Time Temperature Precipitation Wind Pressure Humidity
    00:00 -2°C° 0 mm 3 mps 733 mmHg 77%
    01:00 -2°C° 0 mm 3 mps 733 mmHg 78%
    02:00 -3°C° 0 mm 4 mps 733 mmHg 81%
    03:00 -2°C° 0 mm 3 mps 734 mmHg 82%
    04:00 -2°C° 0 mm 3 mps 734 mmHg 83%
    05:00 -4°C° 0 mm 3 mps 734 mmHg 84%
    06:00 -4°C° 0 mm 3 mps 734 mmHg 83%
    07:00 -4°C° 0 mm 3 mps 734 mmHg 82%
    08:00 -2°C° 0 mm 3 mps 734 mmHg 80%
    09:00 -2°C° 0 mm 3 mps 734 mmHg 73%
    10:00 -1°C° 0 mm 3 mps 734 mmHg 66%
    11:00 0°C° 0 mm 3 mps 734 mmHg 59%
    12:00 +1°C° 0 mm 3 mps 734 mmHg 55%
    13:00 +1°C° 0 mm 3 mps 734 mmHg 52%
    14:00 +2°C° 0 mm 3 mps 734 mmHg 48%
    15:00 +1°C° 0 mm 3 mps 734 mmHg 53%
    16:00 +1°C° 0 mm 2 mps 734 mmHg 59%
    17:00 -1°C° 0 mm 2 mps 733 mmHg 64%
    18:00 -1°C° 0 mm 2 mps 733 mmHg 66%
    19:00 -2°C° 0 mm 2 mps 733 mmHg 69%
    20:00 -2°C° 0 mm 2 mps 733 mmHg 71%
    21:00 -2°C° 0 mm 2 mps 732 mmHg 73%
    22:00 -1°C° 0 mm 3 mps 731 mmHg 75%
    23:00 -1°C° 0 mm 3 mps 731 mmHg 76%

    Tomorrow, 26 February, Wednesday

    Time Temperature Precipitation Wind Pressure Humidity
    00:00 -1°C° 0.1 mm 3 mps 730 mmHg 81%
    01:00 -2°C° 0.1 mm 4 mps 730 mmHg 86%
    02:00 -2°C° 0.1 mm 4 mps 729 mmHg 91%
    03:00 -2°C° 0.3 mm 4 mps 728 mmHg 93%
    04:00 -1°C° 0.3 mm 4 mps 727 mmHg 94%
    05:00 -1°C° 0.3 mm 4 mps 727 mmHg 96%
    06:00 -1°C° 0.5 mm 4 mps 726 mmHg 96%
    07:00 0°C° 0.5 mm 4 mps 726 mmHg 96%
    08:00 +1°C° 0.5 mm 4 mps 726 mmHg 96%
    09:00 +1°C° 1 mm 4 mps 726 mmHg 97%
    10:00 +2°C° 1 mm 3 mps 726 mmHg 97%
    11:00 +2°C° 1 mm 3 mps 726 mmHg 97%
    12:00 +2°C° 0.1 mm 3 mps 726 mmHg 96%
    13:00 +3°C° 0.1 mm 2 mps 726 mmHg 94%
    14:00 +3°C° 0.1 mm 2 mps 726 mmHg 93%
    15:00 +4°C° 0 mm 1 mps 726 mmHg 93%
    16:00 +3°C° 0 mm 1 mps 727 mmHg 94%
    17:00 +3°C° 0 mm 1 mps 727 mmHg 94%
    18:00 +3°C° 0 mm 1 mps 727 mmHg 95%
    19:00 +2°C° 0 mm 1 mps 727 mmHg 95%
    20:00 +2°C° 0 mm 1 mps 728 mmHg 96%
    21:00 +2°C° 0 mm 1 mps 728 mmHg 96%
    22:00 +2°C° 0 mm 1 mps 727 mmHg 97%
    23:00 +2°C° 0 mm 1 mps 727 mmHg 97%

    Day after tomorrow, 27 February, Thursday

    Time Temperature Precipitation Wind Pressure Humidity
    00:00 +2°C° 0 mm 1 mps 727 mmHg 97%
    01:00 +1°C° 0 mm 2 mps 727 mmHg 97%
    02:00 +1°C° 0 mm 2 mps 726 mmHg 97%
    03:00 +1°C° 0.1 mm 2 mps 726 mmHg 97%
    04:00 +1°C° 0.1 mm 2 mps 725 mmHg 97%
    05:00 +2°C° 0.1 mm 2 mps 725 mmHg 98%
    06:00 +2°C° 0.6 mm 2 mps 724 mmHg 98%
    07:00 +1°C° 0.6 mm 2 mps 724 mmHg 98%
    08:00 +1°C° 0.6 mm 2 mps 724 mmHg 98%
    09:00 +2°C° 0.4 mm 1 mps 723 mmHg 98%
    10:00 +2°C° 0.4 mm 1 mps 723 mmHg 98%
    11:00 +2°C° 0.4 mm 1 mps 723 mmHg 98%
    12:00 +2°C° 0.1 mm 2 mps 723 mmHg 97%
    13:00 +2°C° 0.1 mm 2 mps 723 mmHg 97%
    14:00 +2°C° 0.1 mm 2 mps 723 mmHg 96%
    15:00 +1°C° 0 mm 3 mps 723 mmHg 96%
    16:00 +1°C° 0 mm 3 mps 724 mmHg 96%
    17:00 +1°C° 0 mm 3 mps 724 mmHg 96%
    18:00 0°C° 0 mm 3 mps 724 mmHg 95%
    19:00 -1°C° 0 mm 3 mps 725 mmHg 94%
    20:00 -2°C° 0 mm 3 mps 725 mmHg 93%
    21:00 -2°C° 0 mm 3 mps 725 mmHg 92%
    22:00 -2°C° 0 mm 3 mps 726 mmHg 91%
    23:00 -2°C° 0 mm 3 mps 726 mmHg 90%

    28 February, Friday

    Time Temperature Precipitation Wind Pressure Humidity
    00:00 -2°C° 0 mm 3 mps 726 mmHg 89%
    01:00 -4°C° 0 mm 3 mps 726 mmHg 87%
    02:00 -4°C° 0 mm 3 mps 726 mmHg 86%
    03:00 -4°C° 0 mm 3 mps 727 mmHg 85%
    04:00 -4°C° 0 mm 3 mps 727 mmHg 84%
    05:00 -4°C° 0 mm 3 mps 727 mmHg 84%
    06:00 -4°C° 0 mm 3 mps 727 mmHg 81%
    07:00 -4°C° 0 mm 4 mps 727 mmHg 78%
    08:00 -4°C° 0 mm 4 mps 727 mmHg 75%
    09:00 -3°C° 0 mm 4 mps 728 mmHg 73%
    10:00 -3°C° 0 mm 4 mps 728 mmHg 72%
    11:00 -2°C° 0 mm 4 mps 728 mmHg 71%
    12:00 -2°C° 0 mm 4 mps 728 mmHg 73%
    13:00 -2°C° 0 mm 5 mps 729 mmHg 75%
    14:00 -1°C° 0 mm 5 mps 729 mmHg 77%
    15:00 -2°C° 0.1 mm 4 mps 730 mmHg 78%
    16:00 -2°C° 0.1 mm 4 mps 730 mmHg 79%
    17:00 -1°C° 0.1 mm 3 mps 731 mmHg 80%
    18:00 -1°C° 0 mm 3 mps 731 mmHg 83%
    19:00 -2°C° 0 mm 3 mps 732 mmHg 85%
    20:00 -2°C° 0 mm 3 mps 732 mmHg 88%
    21:00 -2°C° 0 mm 3 mps 733 mmHg 88%
    22:00 -4°C° 0 mm 3 mps 733 mmHg 88%
    23:00 -3°C° 0 mm 2 mps 733 mmHg 88%

    29 February, Saturday

    Time Temperature Precipitation Wind Pressure Humidity
    00:00 -3°C° 0 mm 2 mps 734 mmHg 89%
    01:00 -3°C° 0 mm 2 mps 734 mmHg 90%
    02:00 -3°C° 0 mm 2 mps 734 mmHg 91%
    03:00 -1°C° 0 mm 1 mps 734 mmHg 92%
    04:00 -1°C° 0 mm 1 mps 734 mmHg 93%
    05:00 -1°C° 0 mm 1 mps 735 mmHg 93%
    06:00 -1°C° 0 mm 1 mps 735 mmHg 91%
    07:00 -3°C° 0 mm 2 mps 735 mmHg 89%
    08:00 -3°C° 0 mm 2 mps 735 mmHg 87%
    09:00 -2°C° 0 mm 2 mps 736 mmHg 80%
    10:00 -1°C° 0 mm 2 mps 736 mmHg 73%
    11:00 -1°C° 0 mm 2 mps 736 mmHg 66%
    12:00 +1°C° 0 mm 2 mps 736 mmHg 61%
    13:00 +1°C° 0 mm 2 mps 736 mmHg 57%
    14:00 0°C° 0 mm 3 mps 736 mmHg 53%
    15:00 -1°C° 0 mm 2 mps 736 mmHg 56%
    16:00 -2°C° 0 mm 2 mps 736 mmHg 59%
    17:00 0°C° 0 mm 1 mps 737 mmHg 62%
    18:00 -1°C° 0 mm 1 mps 737 mmHg 65%
    19:00 -1°C° 0 mm 1 mps 737 mmHg 67%
    20:00 -2°C° 0 mm 1 mps 738 mmHg 69%
    21:00 -4°C° 0 mm 2 mps 738 mmHg 72%
    22:00 -4°C° 0 mm 2 mps 738 mmHg 75%
    23:00 -4°C° 0 mm 2 mps 739 mmHg 78%

    1 March, Sunday

    Time Temperature Precipitation Wind Pressure Humidity
    00:00 -4°C° 0 mm 2 mps 739 mmHg 81%
    01:00 -4°C° 0 mm 2 mps 739 mmHg 83%
    02:00 -4°C° 0 mm 2 mps 739 mmHg 85%
    03:00 -4°C° 0 mm 2 mps 740 mmHg 86%
    04:00 -5°C° 0 mm 2 mps 740 mmHg 86%
    05:00 -5°C° 0 mm 2 mps 740 mmHg 87%
    06:00 -4°C° 0 mm 2 mps 740 mmHg 85%
    07:00 -4°C° 0 mm 2 mps 740 mmHg 84%
    08:00 -5°C° 0 mm 3 mps 740 mmHg 82%
    09:00 -4°C° 0 mm 3 mps 740 mmHg 76%
    10:00 -2°C° 0 mm 3 mps 740 mmHg 69%
    11:00 -2°C° 0 mm 4 mps 741 mmHg 62%
    12:00 -2°C° 0 mm 4 mps 740 mmHg 60%
    13:00 -1°C° 0 mm 4 mps 740 mmHg 58%
    14:00 -1°C° 0 mm 4 mps 740 mmHg 56%
    15:00 0°C° 0 mm 3 mps 740 mmHg 58%
    16:00 -1°C° 0 mm 3 mps 739 mmHg 60%
    17:00 -1°C° 0 mm 3 mps 739 mmHg 63%
    18:00 -1°C° 0 mm 3 mps 739 mmHg 63%
    19:00 -1°C° 0 mm 3 mps 739 mmHg 63%
    20:00 -2°C° 0 mm 4 mps 739 mmHg 63%
    21:00 -3°C° 0.2 mm 4 mps 738 mmHg 72%
    22:00 -3°C° 0.2 mm 4 mps 738 mmHg 81%
    23:00 -5°C° 0.2 mm 5 mps 737 mmHg 89%
    Show more